GFSNW_250_rhum_354.txt.gz
RH
64 83 100 100 99 97 86 94 100 100 76 50 48 56 56 52 57 58 50 53 83 80 84 92 92 98 80 90 92 85 82 71 62 61 66 73 97 93 87 90 81 65 59 56
86 89 81 99 100 100 100 92 90 93 98 93 100 100 94 72 63 57 54 57 63 67 80 74 98 80 100 100 100 82 100 85 81 78 86 91 83 99 99 89 80 75 90 69
100 95 81 94 98 88 88 93 88 97 99 100 100 100 100 100 100 100 100 100 99 99 95 94 78 83 86 94 100 96 87 88 100 96 92 83 83 92 89 77 72 99 73 80
100 100 100 100 98 98 86 81 75 67 68 93 97 94 76 92 100 100 100 100 100 100 100 100 100 100 100 100 100 100 99 83 87 91 96 84 81 81 87 81 96 87 68 76
100 100 100 100 100 100 100 96 90 77 59 64 91 92 83 86 100 100 100 100 100 100 100 100 100 100 100 100 100 100 98 89 92 83 92 94 82 77 69 77 69 57 69 52
49 61 98 100 100 100 100 100 100 100 100 100 91 86 71 77 86 89 96 99 99 99 100 100 100 100 100 100 94 89 87 94 94 83 88 85 66 97 85 69 65 67 53 75
50 52 52 56 62 82 100 100 100 98 98 100 99 98 97 97 97 83 77 98 98 100 100 100 100 100 100 100 91 95 97 93 86 78 74 66 70 72 98 91 68 80 81 99
70 60 52 55 57 59 62 66 65 61 57 54 46 53 91 86 89 77 93 100 100 100 99 99 89 90 97 100 100 93 100 97 95 89 78 66 65 99 99 100 78 95 100 100
61 70 67 64 64 60 58 50 54 57 58 45 46 46 47 55 59 81 97 100 100 100 100 100 100 100 100 79 92 94 91 78 72 68 70 63 60 90 96 90 47 100 93 73
57 64 68 69 71 65 63 63 64 60 52 46 46 43 42 46 49 52 66 74 75 77 93 100 100 99 77 69 74 85 92 98 100 99 94 84 98 96 94 83 73 60 59 58
49 57 62 78 74 79 81 78 73 57 57 59 63 60 48 48 51 48 54 62 64 63 74 83 84 75 66 60 61 69 74 83 72 73 68 60 85 73 61 63 46 54 54 46
23 38 50 67 80 86 84 82 100 100 88 66 69 58 66 71 64 57 62 67 67 73 68 71 72 74 60 55 51 46 53 57 50 44 45 45 51 59 60 67 74 74 78 72
11 12 16 26 35 53 65 62 93 100 92 72 70 71 97 92 75 72 58 73 97 93 98 96 91 91 77 70 60 59 54 66 64 64 61 70 76 75 66 60 58 46 37 37
9 9 10 12 12 15 21 25 43 54 55 56 36 53 56 74 75 65 81 77 77 92 100 100 99 90 74 90 93 81 80 74 69 69 67 70 68 74 73 62 52 40 30 22
7 7 8 9 10 11 12 13 15 24 29 22 22 32 45 61 65 68 65 65 73 85 90 88 82 89 76 60 85 81 73 85 84 56 54 45 44 42 32 33 32 23 18 16
6 6 6 6 7 7 7 8 10 13 14 13 11 14 16 21 26 29 26 46 59 51 48 43 45 45 54 65 43 54 66 58 52 49 41 27 23 24 21 18 17 16 15 15
6 6 6 6 7 7 7 7 8 8 8 9 8 8 10 11 12 11 11 14 16 25 26 24 29 33 40 26 17 16 18 19 18 19 20 20 20 20 19 18 17 17 15 12
6 6 5 5 5 5 6 6 6 7 8 9 7 8 8 7 9 10 10 11 13 13 16 18 16 14 14 11 12 14 14 13 16 15 14 14 14 14 14 14 15 15 14 14
5 5 5 5 5 5 6 6 6 6 6 7 7 6 7 8 8 7 8 10 10 11 11 12 11 11 10 12 13 13 13 12 12 13 14 13 13 12 12 12 13 12 11 11
5 5 5 4 4 5 5 5 5 5 6 6 7 7 5 6 6 5 6 6 7 7 8 9 10 10 11 12 12 12 12 13 13 11 10 9 8 9 10 11 12 11 11 10
6 5 5 4 4 4 5 5 5 6 6 6 6 6 6 6 5 5 5 5 6 6 7 8 8 9 10 10 10 9 9 9 8 8 9 10 10 11 11 11 11 10 10 10
6 6 6 6 6 6 5 5 5 5 6 6 6 6 6 6 6 5 6 6 5 5 6 6 7 8 8 9 10 10 10 10 10 10 10 10 9 9 9 10 10 9 9 9
6 6 6 6 6 6 6 6 6 6 6 6 5 5 5 5 5 5 5 5 5 5 5 6 6 6 6 6 7 7 7 8 7 7 7 8 8 8 8 8 8 8 8 8
6 6 6 6 6 6 6 6 6 6 6 6 6 6 6 6 6 6 6 6 6 6 6 6 6 6 6 7 7 7 7 7 7 7 7 7 8 8 8 8 7 7 7 7
6 6 6 6 6 6 5 5 5 5 5 5 5 5 6 6 5 5 5 6 6 6 6 6 6 6 7 7 7 7 7 7 7 7 7 7 7 7 7 7 7 7 6 6
6 6 5 5 5 5 5 5 5 5 5 5 5 5 5 5 5 5 5 4 5 5 5 5 5 5 6 6 6 6 6 6 6 7 7 7 6 6 6 6 6 6 6 6
7 6 6 6 6 6 6 6 5 5 5 5 4 4 4 4 4 4 4 4 4 5 5 6 6 6 6 6 6 6 7 7 7 7 7 7 7 7 7 6 6 5 4 4

GFSNW_250_rhum_357.txt.gz
RH
99 81 78 100 100 96 96 100 98 100 100 84 84 99 100 100 100 85 72 64 62 63 68 72 72 91 100 100 100 96 82 56 46 42 42 43 48 49 50 46 46 48 51 49
100 100 100 84 82 100 91 70 87 86 87 77 78 94 100 100 100 100 100 91 89 83 69 56 58 61 70 79 95 99 100 74 61 58 76 87 84 98 100 98 91 78 80 66
100 100 100 100 100 100 100 80 89 81 92 100 90 84 75 72 76 88 100 100 100 100 100 100 76 92 100 92 82 83 74 74 78 73 65 63 68 79 93 96 84 98 74 89
58 88 100 100 100 100 100 100 82 99 87 95 100 93 74 85 91 97 95 84 83 83 78 87 90 95 92 96 100 100 100 90 82 89 88 81 74 74 84 78 87 85 76 76
51 56 57 62 93 100 100 100 100 92 94 99 92 98 67 84 100 89 90 87 98 83 72 82 88 88 84 77 76 90 94 85 93 96 100 94 81 80 77 69 73 66 74 66
60 54 60 64 56 62 66 81 93 100 100 95 93 85 98 100 93 83 100 100 100 98 100 92 87 91 86 73 67 72 76 77 77 77 94 95 74 100 76 74 72 82 62 66
70 66 60 66 74 78 64 58 70 95 94 96 81 88 100 99 87 90 100 88 82 100 99 100 100 97 94 91 78 80 81 78 70 67 63 56 64 82 86 97 73 67 59 70
63 70 74 66 63 77 94 72 62 63 61 63 58 63 69 75 92 83 87 96 96 94 99 100 100 96 94 89 91 100 100 97 89 82 70 59 54 86 97 96 49 53 83 91
75 69 69 68 71 66 65 71 62 67 59 55 63 60 62 59 61 64 64 76 95 94 88 94 88 81 67 58 70 96 93 91 88 76 66 51 56 85 75 75 36 72 93 47
86 84 81 77 69 70 74 76 81 76 72 56 52 52 55 59 60 53 55 61 57 65 68 65 66 64 60 58 66 78 79 81 71 72 64 51 59 74 90 50 61 83 70 71
48 52 56 83 91 93 94 91 97 80 56 73 82 47 48 51 53 56 56 55 53 61 61 59 59 62 62 62 54 55 58 61 53 65 71 60 76 72 79 95 80 90 81 79
19 22 26 33 46 76 76 78 99 95 87 58 74 89 61 51 55 60 57 51 48 59 60 56 65 72 62 47 48 52 51 61 64 58 56 56 62 59 52 54 58 59 58 53
14 16 14 14 18 22 28 32 44 47 58 42 35 55 98 100 61 43 43 43 49 51 47 51 55 67 56 54 55 52 54 58 56 54 46 52 56 57 57 59 57 54 51 45
12 13 15 16 16 16 15 15 17 16 16 13 14 21 20 42 78 100 100 64 68 60 57 49 33 33 36 42 47 46 48 44 51 56 57 55 53 55 53 51 52 46 42 43
9 10 11 12 13 14 13 12 15 17 17 14 13 11 14 18 18 33 76 98 95 100 100 100 99 86 49 40 38 35 38 42 42 38 56 57 48 54 59 56 56 61 51 40
8 9 9 10 10 10 10 11 12 14 13 13 11 10 11 14 16 17 22 32 58 79 86 80 84 80 98 57 52 53 46 54 40 42 44 41 36 31 43 49 46 39 36 26
8 9 10 10 10 9 9 9 10 10 9 9 8 8 10 11 12 14 15 17 19 24 30 32 34 35 56 53 40 36 38 47 44 29 25 26 21 19 19 22 19 16 14 14
8 8 9 8 8 8 8 8 8 8 9 8 7 7 9 10 10 10 11 11 12 13 12 13 15 17 18 16 18 21 23 25 25 25 21 17 14 13 13 14 14 13 13 13
7 7 7 8 8 8 7 7 7 7 7 6 6 7 7 8 8 8 8 8 9 8 8 10 10 10 11 12 14 16 17 16 15 14 12 12 12 12 11 10 10 9 9 10
7 7 7 7 7 8 8 8 7 7 7 7 7 7 6 7 7 7 7 7 7 7 8 8 9 10 10 11 11 12 12 11 10 10 9 9 9 9 9 8 9 9 10 10
6 6 6 6 6 7 7 7 6 6 6 6 6 6 6 6 6 6 6 6 7 7 7 8 8 9 11 11 11 11 10 8 8 8 7 8 8 9 9 9 9 9 8 8
6 7 7 7 7 7 6 6 6 6 6 6 6 6 5 6 6 5 6 6 6 7 7 8 7 8 9 9 8 8 8 8 8 8 8 7 7 8 8 7 7 7 7 7
7 8 8 8 7 7 7 7 7 7 6 6 6 6 6 6 6 6 6 5 5 5 5 6 6 7 7 7 7 7 7 7 7 8 8 8 8 8 8 8 7 8 8 8
6 6 6 6 6 6 6 6 6 5 6 6 6 6 6 6 6 6 6 6 6 6 6 6 6 6 6 6 6 6 7 7 7 7 7 8 8 8 8 8 8 8 8 8
7 7 6 6 6 6 5 5 5 4 4 4 4 4 4 4 4 5 4 5 5 6 6 6 5 6 6 6 7 7 7 7 7 7 7 7 7 7 7 7 7 6 6 6
10 9 8 7 8 7 7 6 6 5 5 5 4 4 4 4 4 4 4 3 4 4 4 4 5 5 5 5 6 6 6 6 6 6 6 6 6 6 5 5 5 5 5 5
10 11 11 9 9 9 8 8 7 6 5 5 4 4 4 4 4 4 4 4 4 4 4 4 4 4 4 4 4 4 4 4 4 4 4 4 5 5 5 4 4 4 4 4

GFSNW_250_rhum_360.txt.gz
RH
100 100 100 100 100 100 100 100 100 100 100 99 93 95 100 100 100 100 100 99 100 87 85 80 75 81 94 100 100 100 92 66 58 91 100 100 84 75 95 86 61 40 25 29
100 100 100 100 100 100 100 97 95 100 100 99 100 100 100 100 100 100 100 96 98 98 83 70 87 93 96 91 100 94 90 66 55 51 65 85 93 96 99 99 91 56 47 41
70 100 100 100 100 100 100 100 94 98 100 100 100 100 100 100 100 100 99 94 91 95 94 100 84 95 98 100 100 100 96 78 69 60 54 51 51 59 69 75 62 68 57 74
53 57 71 97 98 100 100 100 100 98 66 95 89 85 65 88 100 100 100 100 100 100 94 97 86 90 100 100 100 100 100 94 87 83 78 68 71 86 92 75 74 62 77 60
65 64 49 52 56 60 61 71 76 100 96 100 100 100 100 86 78 73 95 84 100 100 97 100 100 95 77 74 77 85 93 94 96 92 96 92 74 67 74 79 96 82 84 68
90 70 64 60 52 52 50 54 63 66 74 85 86 90 100 98 100 100 94 94 88 77 100 100 86 87 90 68 64 58 66 84 90 82 92 90 73 93 76 81 78 91 70 79
90 91 96 86 74 72 63 49 45 50 52 53 58 62 64 66 92 100 100 100 99 100 100 96 97 99 99 97 86 70 60 64 66 64 62 65 70 77 80 90 79 73 61 69
80 92 99 100 100 98 84 68 66 62 53 54 51 56 61 64 70 65 73 86 97 100 100 99 100 97 100 96 80 66 67 70 68 66 52 44 40 61 99 63 43 46 50 69
70 78 94 95 95 99 98 87 90 71 61 48 55 65 65 64 71 77 73 78 69 82 100 100 91 78 73 65 66 60 76 77 72 63 50 37 39 76 78 89 28 55 98 58
44 54 72 87 96 91 93 97 95 87 89 74 58 50 58 78 77 72 80 99 99 91 87 90 85 82 74 68 71 80 76 67 59 59 56 43 54 80 82 47 45 70 62 65
19 28 32 45 66 63 70 84 88 81 85 72 66 58 51 46 62 76 81 98 78 81 78 76 77 77 74 75 71 78 77 81 76 75 75 64 69 63 67 68 52 51 60 72
12 12 15 22 32 39 46 42 62 70 85 81 72 73 70 57 55 46 49 63 68 77 85 86 82 75 71 64 64 67 61 65 70 62 57 61 61 62 65 63 64 67 68 66
14 14 14 14 18 24 24 28 37 41 45 45 46 63 68 43 49 56 46 46 53 58 55 59 61 58 55 52 55 50 54 64 58 56 54 58 63 61 58 55 52 54 56 60
12 12 14 14 15 18 16 19 22 24 26 23 22 22 21 27 39 53 56 53 65 61 75 66 53 40 38 39 38 37 35 37 40 42 45 47 50 55 54 53 50 45 45 43
9 10 11 14 15 15 16 20 20 19 16 15 16 18 19 20 20 23 26 30 42 46 63 64 31 30 32 27 25 21 22 24 24 28 36 36 38 39 38 38 38 36 34 33
9 9 10 11 11 12 14 16 20 17 17 17 16 12 17 18 19 23 24 28 30 33 47 49 41 31 36 30 21 21 31 22 12 12 14 17 18 13 13 16 22 30 25 23
8 9 9 9 10 11 11 12 12 14 15 14 12 12 15 13 15 18 19 21 24 23 28 27 36 35 46 35 22 30 26 28 22 18 13 13 16 18 18 14 15 16 15 16
8 9 9 9 9 9 10 11 12 12 12 11 10 11 13 16 15 13 15 16 18 20 18 21 20 24 32 40 21 17 24 17 15 16 14 12 13 15 15 16 16 17 13 9
8 8 9 9 10 10 10 10 10 10 10 9 9 9 10 10 11 11 10 9 10 10 11 14 14 16 16 13 13 13 12 12 11 11 14 15 16 18 16 11 8 9 10 10
8 8 9 9 8 9 9 9 8 9 9 9 8 9 8 9 9 10 10 10 10 8 8 10 10 9 10 10 11 12 12 11 12 12 11 10 10 11 10 8 8 9 10 10
8 9 9 9 8 9 9 9 8 8 8 8 8 8 8 8 8 8 8 7 8 8 9 9 8 7 8 9 10 10 10 10 10 10 9 8 7 7 7 7 8 8 8 8
8 8 8 8 8 8 8 8 8 8 8 8 7 7 7 7 7 7 7 6 6 6 6 6 7 8 8 9 9 9 9 9 9 9 8 7 7 7 7 7 6 6 6 7
8 9 8 8 8 7 7 7 7 7 7 6 6 6 6 6 6 6 6 6 6 6 7 7 8 8 8 8 8 7 7 6 6 7 7 7 8 7 8 7 7 7 7 7
8 8 8 8 7 6 6 6 6 6 5 5 5 5 5 4 4 4 4 4 5 5 6 7 7 7 7 7 7 7 7 7 7 7 7 7 7 7 7 7 7 7 7 7
14 13 11 11 10 9 8 7 6 5 5 4 4 4 4 4 4 4 4 4 4 4 5 5 5 5 5 5 6 6 7 7 7 7 7 7 7 7 7 7 7 7 7 7
10 10 10 10 11 10 10 9 8 7 6 5 5 4 4 4 4 4 4 4 4 5 5 5 5 4 4 4 4 4 5 5 5 5 5 6 6 6 6 6 6 6 6 6
15 13 12 12 12 11 10 8 6 6 6 6 5 4 4 4 4 3 3 3 4 4 4 4 4 4 4 4 5 5 4 4 4 4 4 4 4 4 4 4 4 4 4 4

GFSNW_250_rhum_363.txt.gz
RH
97 100 100 100 100 100 100 100 100 100 100 100 100 100 100 100 100 100 100 100 100 100 100 100 94 83 91 96 91 86 79 67 63 68 67 67 68 77 92 85 63 46 44 60
72 99 93 100 100 100 100 94 100 100 100 100 100 100 100 100 100 100 100 100 100 100 100 98 100 100 100 89 92 87 87 65 60 54 59 71 79 71 64 59 46 39 48 68
59 66 84 98 95 100 100 99 90 97 98 100 100 100 100 100 100 100 100 100 100 100 100 100 100 100 100 100 100 100 100 85 71 64 68 66 66 75 78 69 53 58 44 46
83 64 63 71 69 79 94 94 91 92 79 91 100 95 97 100 100 100 100 100 100 100 100 100 100 100 100 100 100 100 100 99 100 99 89 78 70 71 81 76 79 53 92 65
100 100 94 81 65 67 69 62 67 76 82 90 92 99 79 96 100 100 100 100 100 100 100 100 100 100 100 100 100 100 100 100 100 97 100 100 90 82 82 92 100 97 86 58
100 100 100 100 99 98 65 54 61 70 68 65 68 91 100 100 99 94 89 94 100 100 100 100 100 100 100 100 100 95 100 100 100 100 100 100 76 95 84 93 95 97 79 96
100 100 100 100 100 100 99 76 65 58 61 75 86 87 88 93 90 82 92 92 94 100 100 95 82 84 82 77 72 74 75 79 84 84 82 72 68 84 77 80 79 74 66 61
98 100 100 100 100 100 100 98 71 68 71 69 64 69 84 88 83 70 78 78 83 84 86 93 89 82 73 61 69 76 75 70 61 53 48 48 45 60 98 82 52 56 62 69
57 81 100 100 100 100 100 100 100 99 72 58 60 66 67 68 70 73 68 85 83 72 81 94 86 78 72 73 72 83 90 90 95 86 78 64 53 93 90 94 44 70 87 100
32 36 65 95 100 100 100 100 100 100 84 69 60 58 68 84 71 62 64 71 81 78 80 84 82 76 72 71 71 82 91 79 80 81 72 57 62 86 96 77 48 91 81 60
15 21 29 46 71 89 99 100 94 100 98 86 72 53 51 56 62 65 71 88 79 77 79 88 94 83 73 72 67 67 70 87 88 81 78 72 91 89 86 69 59 64 65 62
13 15 17 19 32 48 67 89 63 82 92 91 77 77 57 55 52 55 62 70 78 93 91 94 97 99 90 74 66 71 69 70 74 67 70 80 82 74 77 78 64 64 65 68
11 13 15 17 17 20 27 45 77 82 58 39 54 77 72 65 61 41 37 50 70 78 78 84 84 80 80 75 75 65 63 69 65 72 63 75 73 68 69 68 63 57 56 60
9 10 12 15 16 18 19 23 31 35 33 36 36 42 39 42 47 51 31 29 41 45 43 51 60 64 64 63 64 67 68 69 62 55 62 66 66 70 71 65 56 50 46 43
9 10 11 12 14 15 16 18 22 27 32 27 27 27 33 39 36 33 35 39 48 40 29 29 22 23 30 40 47 48 53 47 48 46 51 52 51 55 56 56 53 51 46 39
8 8 9 10 11 12 12 13 15 18 21 20 23 25 31 26 28 25 26 26 28 31 27 24 23 25 31 23 20 22 20 24 28 29 33 31 30 31 28 27 25 24 23 18
8 8 8 9 10 10 10 12 13 14 14 14 13 13 14 21 22 24 25 26 26 26 25 23 29 33 39 21 14 15 17 17 19 20 19 20 21 20 19 19 18 16 14 15
7 7 8 8 9 10 12 12 13 14 14 14 13 14 16 17 16 16 14 15 16 16 15 13 14 18 22 16 15 15 17 16 17 18 18 17 14 12 12 12 10 9 9 10
8 8 8 8 8 9 10 10 11 11 11 11 11 11 13 14 14 14 14 14 13 12 11 12 14 14 16 16 13 14 19 25 21 16 12 11 11 11 10 9 10 11 14 20
8 9 9 10 10 10 10 10 10 11 10 10 10 10 10 10 12 12 11 11 10 10 11 12 13 13 12 11 13 17 18 16 14 15 12 11 11 11 10 9 9 10 10 11
8 8 9 9 9 10 10 10 9 9 9 9 8 8 8 8 8 8 8 8 8 8 10 11 10 9 9 10 11 13 14 13 13 12 12 13 13 12 10 10 10 9 9 10
8 8 8 8 8 9 9 8 9 8 9 9 9 8 8 8 7 7 7 7 7 8 8 8 7 8 9 10 10 10 10 9 10 10 10 10 10 10 10 9 8 9 8 8
10 9 8 9 9 8 8 8 7 7 7 6 6 6 6 6 5 6 6 6 6 7 7 8 8 8 8 7 7 7 8 7 6 7 7 7 6 7 7 8 8 9 10 9
15 16 16 14 14 12 11 10 9 7 6 5 5 5 6 5 5 4 4 4 5 5 5 6 6 6 6 6 6 6 6 6 6 6 6 6 7 7 8 8 7 7 7 7
14 14 15 14 12 12 11 11 10 10 8 7 6 5 5 4 4 4 4 4 4 5 5 5 5 4 4 4 5 5 5 5 6 6 6 6 6 6 7 7 7 7 7 7
11 14 16 14 14 12 11 10 10 9 8 7 6 5 5 5 4 4 4 4 4 4 4 4 4 5 5 4 4 4 4 4 4 5 5 5 5 5 5 5 6 6 6 6
13 16 16 18 18 15 13 12 10 8 7 7 6 6 5 5 4 4 4 4 4 4 4 4 4 4 4 4 4 4 4 4 4 4 5 5 5 5 5 5 5 5 5 5